Weather History for KFBL - November, 2013

Change the Weather History Date:

Thursday, November 14, 2013

  Actual Average (WUND) Record (WUND)
Temperature  
Mean Temperature 42 °F -  
Max Temperature 51 °F - - (-1)
Min Temperature 32 °F - - (-1)
Degree Days  
Heating Degree Days 24    
Moisture  
Dew Point 30 °F    
Average Humidity 68    
Maximum Humidity 87    
Minimum Humidity 54    
Precipitation  
Precipitation 0.00 in - - ()
Sea Level Pressure  
Sea Level Pressure 29.84 in    
Wind  
Wind Speed 7 mph (South)    
Max Wind Speed 10 mph    
Max Gust Speed -    
Visibility 9 miles    
Events      
Averages and records for this station are not official NWS values.
T = Trace of Precipitation, MM = Missing Value Source: NWS Daily Summary

Daily Weather History Graph

Daily Weather History Graph

Search for Another Location

Airport or City:

Trip Planner

Search our weather history database for the weather conditions in past years. The results will help you decide how hot, cold, wet, or windy it might be!

Date:

Astronomy

Nov. 14, 2013 Rise Set
Actual Time 7:08 AM CST 4:46 PM CST
Civil Twilight 6:36 AM CST 5:18 PM CST
Nautical Twilight 6:01 AM CST 5:53 PM CST
Astronomical Twilight 5:27 AM CST 6:27 PM CST
Moon 3:13 PM CST (11/14) 3:57 AM CST (11/14)
Length of Visible Light 10h 41m
Length of Day
9h 38m
Waxing Gibbous, 92% of the Moon is Illuminated
Nov 14
Waxing Gibbous
Nov 17
Full
Nov 25
Last Quarter
Dec 2
New
Dec 9
First Quarter

Hourly Weather History & Observations

Time (CST) Temp. Windchill Dew Point Humidity Pressure Visibility Wind Dir Wind Speed Gust Speed Precip Events Conditions
12:14 AM 39.2 °F 33.6 °F 24.8 °F 56% 29.90 in 10.0 mi South 8.1 mph - N/A   Clear
12:34 AM 39.2 °F 32.5 °F 24.8 °F 56% 29.89 in 10.0 mi South 10.4 mph - N/A   Clear
12:54 AM 39.2 °F 33.6 °F 24.8 °F 56% 29.89 in 10.0 mi SSW 8.1 mph - N/A   Clear
1:14 AM 37.4 °F 32.1 °F 24.8 °F 60% 29.88 in 10.0 mi SSW 6.9 mph - N/A   Clear
1:34 AM 37.4 °F 30.8 °F 24.8 °F 60% 29.87 in 10.0 mi South 9.2 mph - N/A   Clear
1:54 AM 37.4 °F 32.1 °F 24.8 °F 60% 29.88 in 10.0 mi South 6.9 mph - N/A   Clear
2:14 AM 37.4 °F 32.1 °F 24.8 °F 60% 29.87 in 10.0 mi SSW 6.9 mph - N/A   Clear
2:34 AM 37.4 °F 32.8 °F 24.8 °F 60% 29.87 in 10.0 mi South 5.8 mph - N/A   Clear
2:54 AM 37.4 °F 32.1 °F 24.8 °F 60% 29.87 in 10.0 mi South 6.9 mph - N/A   Clear
3:14 AM 37.4 °F 31.4 °F 24.8 °F 60% 29.87 in 10.0 mi SSW 8.1 mph - N/A   Clear
3:34 AM 37.4 °F 33.8 °F 24.8 °F 60% 29.87 in 10.0 mi SSW 4.6 mph - N/A   Clear
3:54 AM 37.4 °F 33.8 °F 24.8 °F 60% 29.87 in 10.0 mi South 4.6 mph - N/A   Clear
4:14 AM 37.4 °F 32.1 °F 24.8 °F 60% 29.86 in 10.0 mi South 6.9 mph - N/A   Clear
4:34 AM 35.6 °F 29.9 °F 24.8 °F 65% 29.85 in 10.0 mi South 6.9 mph - N/A   Clear
4:54 AM 35.6 °F 30.7 °F 26.6 °F 70% 29.86 in 10.0 mi SSW 5.8 mph - N/A   Clear
5:14 AM 35.6 °F 30.7 °F 26.6 °F 70% 29.85 in 10.0 mi South 5.8 mph - N/A   Clear
5:34 AM 37.4 °F 32.1 °F 26.6 °F 65% 29.85 in 10.0 mi South 6.9 mph - N/A   Clear
5:54 AM 37.4 °F 31.4 °F 26.6 °F 65% 29.85 in 10.0 mi SSW 8.1 mph - N/A   Scattered Clouds
6:14 AM 37.4 °F 30.3 °F 26.6 °F 65% 29.85 in 10.0 mi South 10.4 mph - N/A   Scattered Clouds
6:34 AM 37.4 °F 32.1 °F 26.6 °F 65% 29.85 in 10.0 mi SSW 6.9 mph - N/A   Scattered Clouds
6:54 AM 37.4 °F 33.8 °F 26.6 °F 65% 29.85 in 10.0 mi SSW 4.6 mph - N/A   Scattered Clouds
7:14 AM 37.4 °F 32.8 °F 26.6 °F 65% 29.85 in 10.0 mi South 5.8 mph - N/A   Scattered Clouds
7:34 AM 37.4 °F 32.8 °F 26.6 °F 65% 29.84 in 10.0 mi South 5.8 mph - N/A   Mostly Cloudy
7:54 AM 37.4 °F 31.4 °F 26.6 °F 65% 29.85 in 10.0 mi SW 8.1 mph - N/A   Mostly Cloudy
8:14 AM 37.4 °F 30.8 °F 26.6 °F 65% 29.84 in 10.0 mi South 9.2 mph - N/A   Mostly Cloudy
8:34 AM 37.4 °F 32.1 °F 28.4 °F 70% 29.85 in 10.0 mi South 6.9 mph - N/A   Mostly Cloudy
8:53 AM 37.4 °F 32.8 °F 28.4 °F 70% 29.86 in 10.0 mi South 5.8 mph - N/A   Mostly Cloudy
9:14 AM 39.2 °F 35.0 °F 28.4 °F 65% 29.86 in 10.0 mi SSW 5.8 mph - N/A   Mostly Cloudy
9:34 AM 39.2 °F 35.0 °F 28.4 °F 65% 29.86 in 10.0 mi South 5.8 mph - N/A   Scattered Clouds
9:54 AM 39.2 °F 35.0 °F 28.4 °F 65% 29.86 in 10.0 mi South 5.8 mph - N/A   Scattered Clouds
10:14 AM 39.2 °F 35.9 °F 30.2 °F 70% 29.86 in 10.0 mi South 4.6 mph - N/A   Scattered Clouds
10:34 AM 41.0 °F 35.8 °F 30.2 °F 65% 29.86 in 10.0 mi South 8.1 mph - N/A   Clear
10:54 AM 42.8 °F 38.6 °F 30.2 °F 61% 29.87 in 10.0 mi SSW 6.9 mph - N/A   Clear
11:14 AM 42.8 °F 38.0 °F 30.2 °F 61% 29.86 in 10.0 mi South 8.1 mph - N/A   Clear
11:34 AM 41.0 °F 34.7 °F 30.2 °F 65% 29.84 in 10.0 mi South 10.4 mph - N/A   Scattered Clouds
11:54 AM 41.0 °F 35.2 °F 30.2 °F 65% 29.82 in 10.0 mi South 9.2 mph - N/A   Clear
12:14 PM 42.8 °F 38.6 °F 30.2 °F 61% 29.83 in 10.0 mi SSW 6.9 mph - N/A   Clear
12:34 PM 42.8 °F 39.3 °F 32.0 °F 66% 29.82 in 10.0 mi SSW 5.8 mph - N/A   Clear
12:54 PM 42.8 °F 38.6 °F 32.0 °F 66% 29.81 in 10.0 mi South 6.9 mph - N/A   Scattered Clouds
1:14 PM 44.6 °F 41.4 °F 32.0 °F 61% 29.80 in 10.0 mi South 5.8 mph - N/A   Clear
1:16 PM 44.6 °F 40.2 °F 32.0 °F 61% 29.80 in 10.0 mi SSW 8.1 mph - N/A   Clear
1:54 PM 44.6 °F 39.7 °F 33.8 °F 66% 29.79 in 10.0 mi South 9.2 mph - N/A   Clear
2:14 PM 48.2 °F - 33.8 °F 58% 29.79 in 10.0 mi South 6.9 mph - N/A   Clear
2:34 PM 48.2 °F - 33.8 °F 58% 29.78 in 10.0 mi South 6.9 mph - N/A   Clear
2:54 PM 48.2 °F - 33.8 °F 58% 29.79 in 10.0 mi SSW 5.8 mph - N/A   Clear
3:14 PM 50.0 °F - 33.8 °F 54% 29.78 in 10.0 mi South 4.6 mph - N/A   Clear
3:34 PM 51.8 °F - 35.6 °F 54% 29.78 in 10.0 mi South 5.8 mph - N/A   Clear
3:54 PM 50.0 °F - 35.6 °F 58% 29.78 in 10.0 mi South 4.6 mph - N/A   Clear
4:14 PM 50.0 °F - 35.6 °F 58% 29.79 in 10.0 mi South 4.6 mph - N/A   Clear
4:35 PM 48.2 °F - 35.6 °F 62% 29.78 in 10.0 mi South 6.9 mph - N/A   Clear
4:54 PM 46.4 °F 43.5 °F 35.6 °F 66% 29.79 in 10.0 mi South 5.8 mph - N/A   Clear
5:14 PM 46.4 °F 42.9 °F 37.4 °F 71% 29.79 in 10.0 mi South 6.9 mph - N/A   Clear
5:34 PM 46.4 °F 44.3 °F 37.4 °F 71% 29.79 in 10.0 mi South 4.6 mph - N/A   Clear
5:54 PM 44.6 °F 41.4 °F 37.4 °F 76% 29.80 in 10.0 mi South 5.8 mph - N/A   Clear
6:14 PM 42.8 °F 40.1 °F 35.6 °F 76% 29.81 in 10.0 mi SSW 4.6 mph - N/A   Clear
6:34 PM 42.8 °F 40.1 °F 35.6 °F 76% 29.81 in 10.0 mi SW 4.6 mph - N/A   Clear
6:54 PM 41.0 °F 39.0 °F 35.6 °F 81% 29.81 in 10.0 mi SSW 3.5 mph - N/A   Clear
7:14 PM 41.0 °F 38.0 °F 35.6 °F 81% 29.82 in 10.0 mi South 4.6 mph - N/A   Clear
7:34 PM 39.2 °F 37.0 °F 33.8 °F 81% 29.82 in 10.0 mi South 3.5 mph - N/A   Clear
7:54 PM 39.2 °F 37.0 °F 35.6 °F 87% 29.82 in 10.0 mi South 3.5 mph - N/A   Clear
8:14 PM 39.2 °F 35.9 °F 33.8 °F 81% 29.82 in 10.0 mi South 4.6 mph - N/A   Clear
8:34 PM 39.2 °F 35.9 °F 33.8 °F 81% 29.83 in 10.0 mi SSW 4.6 mph - N/A   Clear
8:54 PM 39.2 °F 37.0 °F 33.8 °F 81% 29.83 in 7.0 mi SSW 3.5 mph - N/A   Clear
9:14 PM 37.4 °F 33.8 °F 32.0 °F 81% 29.84 in 7.0 mi SSW 4.6 mph - N/A   Clear
9:34 PM 37.4 °F 32.8 °F 32.0 °F 81% 29.85 in 5.0 mi SW 5.8 mph - N/A   Haze
9:54 PM 33.8 °F - 28.4 °F 81% 29.85 in 5.0 mi Calm Calm - N/A   Haze
10:14 PM 35.6 °F - 30.2 °F 81% 29.85 in 5.0 mi Calm Calm - N/A   Haze
10:34 PM 32.0 °F - 28.4 °F 87% 29.85 in 5.0 mi Calm Calm - N/A   Clear
10:54 PM 32.0 °F - 26.6 °F 80% 29.84 in 4.0 mi Calm Calm - N/A   Haze
11:14 PM 32.0 °F - 26.6 °F 80% 29.84 in 2.5 mi Calm Calm - N/A   Haze
11:34 PM 32.0 °F - 28.4 °F 87% 29.84 in 4.0 mi Calm Calm - N/A   Clear
11:54 PM 32.0 °F - 26.6 °F 80% 29.84 in 5.0 mi Calm Calm - N/A   Haze